Randolph AFB, TX

7:55 AM CDT on August 23, 2017 (GMT -0500)
Randolph Air Force Base

Weather History for KRND - May, 2014

Change the Weather History Date:

Sunday, May 11, 2014

  Actual Average Record
Temperature  
Mean Temperature 78 °F -  
Max Temperature 89 °F 83 °F 91 °F (2000)
Min Temperature 68 °F 64 °F 50 °F (1997)
Cooling Degree Days 13    
Growing Degree Days 28 (Base 50)    
Moisture  
Dew Point 67 °F    
Average Humidity 79    
Maximum Humidity 100    
Minimum Humidity 47    
Precipitation  
Precipitation 0.00 in - - ()
Sea Level Pressure  
Sea Level Pressure 29.81 in    
Wind  
Wind Speed 10 mph (SSE)    
Max Wind Speed 21 mph    
Max Gust Speed 28 mph    
Visibility 10 miles    
Events      
Averages and records for this station are not official NWS values.
T = Trace of Precipitation, MM = Missing Value Source: NWS Daily Summary

Daily Weather History Graph

Daily Weather History Graph

Search for Another Location

Airport or City:

Trip Planner

Search our weather history database for the weather conditions in past years. The results will help you decide how hot, cold, wet, or windy it might be!

Date:

Astronomy

May. 11, 2014 Rise Set
Actual Time 6:43 AM CDT 8:16 PM CDT
Civil Twilight 6:17 AM CDT 8:42 PM CDT
Nautical Twilight 5:46 AM CDT 9:12 PM CDT
Astronomical Twilight 5:14 AM CDT 9:45 PM CDT
Moon 5:26 PM CDT (5/11) 4:33 AM CDT (5/11)
Length of Visible Light 14h 24m
Length of Day
13h 33m
Waxing Gibbous, 89% of the Moon is Illuminated
May 11
Waxing Gibbous
May 14
Full
May 21
Last Quarter
May 28
New
Jun 5
First Quarter

Hourly Weather History & Observations

Time (CDT) Temp. Heat Index Dew Point Humidity Pressure Visibility Wind Dir Wind Speed Gust Speed Precip Events Conditions
12:58 AM 68.0 °F - 64.6 °F 89% 29.82 in 10.0 mi SE 8.1 mph - N/A   Scattered Clouds
1:03 AM 69.8 °F - 66.2 °F 88% 29.83 in 10.0 mi SE 8.1 mph - N/A   Mostly Cloudy
1:38 AM 71.6 °F - 68.0 °F 88% 29.84 in 10.0 mi SE 12.7 mph - N/A   Overcast
1:58 AM 71.1 °F - 67.5 °F 88% 29.82 in 10.0 mi SSE 8.1 mph - N/A   Overcast
2:23 AM 71.6 °F - 68.0 °F 88% 29.83 in 10.0 mi SSE 8.1 mph - N/A   Overcast
2:43 AM 71.6 °F - 68.0 °F 88% 29.83 in 10.0 mi South 8.1 mph - N/A   Overcast
2:48 AM 71.6 °F - 68.0 °F 88% 29.83 in 10.0 mi South 10.4 mph - N/A   Overcast
2:53 AM 71.6 °F - 68.0 °F 88% 29.83 in 10.0 mi South 8.1 mph - N/A   Overcast
2:58 AM 71.8 °F - 67.5 °F 86% 29.81 in 10.0 mi South 8.1 mph - N/A   Overcast
3:03 AM 71.6 °F - 68.0 °F 88% 29.82 in 10.0 mi South 8.1 mph - N/A   Overcast
3:13 AM 71.6 °F - 68.0 °F 88% 29.82 in 10.0 mi South 8.1 mph - N/A   Overcast
3:23 AM 71.6 °F - 68.0 °F 88% 29.82 in 10.0 mi South 5.8 mph - N/A   Overcast
3:58 AM 72.1 °F - 67.1 °F 84% 29.79 in 10.0 mi South 5.8 mph - N/A   Overcast
4:33 AM 69.8 °F - 66.2 °F 88% 29.80 in 10.0 mi SE 5.8 mph - N/A   Scattered Clouds
4:58 AM 68.0 °F - 65.7 °F 92% 29.78 in 10.0 mi SSE 4.6 mph - N/A   Scattered Clouds
5:03 AM 68.0 °F - 66.2 °F 94% 29.80 in 10.0 mi SSE 3.5 mph - N/A   Mostly Cloudy
5:23 AM 69.8 °F - 66.2 °F 88% 29.80 in 10.0 mi SSE 3.5 mph - N/A   Overcast
5:28 AM 69.8 °F - 66.2 °F 88% 29.80 in 10.0 mi SSE 3.5 mph - N/A   Overcast
5:33 AM 69.8 °F - 66.2 °F 88% 29.80 in 10.0 mi SE 3.5 mph - N/A   Overcast
5:43 AM 69.8 °F - 68.0 °F 94% 29.79 in 10.0 mi ESE 2.3 mph - N/A   Overcast
5:52 AM 69.8 °F - 68.0 °F 94% 29.79 in 10.0 mi SE 5.8 mph - N/A   Overcast
5:58 AM 70.0 °F - 68.2 °F 94% 29.77 in 10.0 mi SE 5.8 mph - N/A   Overcast
6:08 AM 69.8 °F - 68.0 °F 94% 29.79 in 10.0 mi SE 4.6 mph - N/A   Mostly Cloudy
6:13 AM 69.8 °F - 68.0 °F 94% 29.79 in 9.0 mi SE 5.8 mph - N/A   Mostly Cloudy
6:23 AM 68.0 °F - 66.2 °F 94% 29.80 in 8.0 mi SSE 5.8 mph - N/A   Mostly Cloudy
6:33 AM 69.8 °F - 68.0 °F 94% 29.80 in 10.0 mi SSE 6.9 mph - N/A   Mostly Cloudy
6:53 AM 69.8 °F - 68.0 °F 94% 29.81 in 9.0 mi SSE 8.1 mph - N/A   Overcast
6:58 AM 70.2 °F - 68.7 °F 95% 29.79 in 9.0 mi SSE 6.9 mph - N/A   Overcast
7:08 AM 69.8 °F - 68.0 °F 94% 29.82 in 9.0 mi SSE 9.2 mph - N/A   Overcast
7:13 AM 69.8 °F - 68.0 °F 94% 29.82 in 10.0 mi SSE 10.4 mph - N/A   Overcast
7:18 AM 69.8 °F - 68.0 °F 94% 29.82 in 10.0 mi SSE 9.2 mph - N/A   Overcast
7:23 AM 69.8 °F - 69.8 °F 100% 29.82 in 10.0 mi SE 9.2 mph - N/A   Overcast
7:28 AM 69.8 °F - 68.0 °F 94% 29.82 in 10.0 mi SSE 10.4 mph - N/A   Overcast
7:33 AM 71.6 °F - 69.8 °F 94% 29.82 in 10.0 mi SSE 10.4 mph - N/A   Overcast
7:58 AM 70.9 °F - 68.5 °F 92% 29.81 in 10.0 mi SSE 10.4 mph - N/A   Overcast
8:28 AM 71.6 °F - 68.0 °F 88% 29.84 in 10.0 mi SSE 9.2 mph - N/A   Overcast
8:48 AM 73.4 °F - 68.0 °F 83% 29.85 in 10.0 mi SSE 13.8 mph - N/A   Overcast
8:53 AM 73.4 °F - 68.0 °F 83% 29.85 in 10.0 mi SSE 10.4 mph - N/A   Overcast
8:58 AM 73.0 °F - 67.5 °F 83% 29.83 in 10.0 mi SSE 11.5 mph - N/A   Overcast
9:18 AM 75.2 °F - 66.2 °F 73% 29.85 in 10.0 mi SSE 16.1 mph - N/A   Overcast
9:38 AM 75.2 °F - 66.2 °F 73% 29.86 in 10.0 mi South 11.5 mph - N/A   Mostly Cloudy
9:58 AM 77.0 °F - 66.2 °F 69% 29.84 in 10.0 mi SSE 16.1 mph - N/A   Overcast
10:03 AM 77.0 °F - 66.2 °F 69% 29.86 in 10.0 mi SSE 15.0 mph - N/A   Overcast
10:18 AM 77.0 °F - 66.2 °F 69% 29.86 in 10.0 mi SSE 15.0 mph - N/A   Overcast
10:23 AM 78.8 °F - 66.2 °F 65% 29.86 in 10.0 mi SSE 17.3 mph - N/A   Overcast
10:43 AM 78.8 °F - 66.2 °F 65% 29.86 in 10.0 mi SSE 15.0 mph - N/A   Overcast
10:58 AM 79.0 °F - 65.8 °F 64% 29.84 in 10.0 mi South 13.8 mph 20.7 mph N/A   Mostly Cloudy
11:08 AM 80.6 °F 82.7 °F 66.2 °F 61% 29.85 in 10.0 mi South 16.1 mph 23.0 mph N/A   Scattered Clouds
11:43 AM 82.4 °F 84.6 °F 66.2 °F 58% 29.85 in 10.0 mi South 13.8 mph - N/A   Mostly Cloudy
11:53 AM 82.4 °F 84.6 °F 66.2 °F 58% 29.84 in 10.0 mi SSE 19.6 mph 25.3 mph N/A   Mostly Cloudy
11:58 AM 82.8 °F 84.7 °F 65.8 °F 56% 29.82 in 10.0 mi SSE 16.1 mph 25.3 mph N/A   Mostly Cloudy
12:13 PM 82.4 °F 84.6 °F 66.2 °F 58% 29.84 in 10.0 mi SSE 15.0 mph 21.9 mph N/A   Mostly Cloudy
12:28 PM 84.2 °F 86.6 °F 66.2 °F 55% 29.84 in 10.0 mi SSE 13.8 mph 25.3 mph N/A   Scattered Clouds
12:33 PM 84.2 °F 86.6 °F 66.2 °F 55% 29.83 in 10.0 mi South 16.1 mph 24.2 mph N/A   Mostly Cloudy
12:48 PM 84.2 °F 86.6 °F 66.2 °F 55% 29.83 in 10.0 mi South 16.1 mph - N/A   Mostly Cloudy
12:58 PM 85.1 °F 87.4 °F 66.4 °F 53% 29.80 in 10.0 mi SSE 13.8 mph 23.0 mph N/A   Mostly Cloudy
1:09 PM 84.2 °F 86.6 °F 66.2 °F 55% 29.81 in 10.0 mi South 16.1 mph - N/A   Mostly Cloudy
1:54 PM 86.0 °F 88.2 °F 66.2 °F 51% 29.79 in 10.0 mi South 15.0 mph - N/A   Mostly Cloudy
1:58 PM 86.4 °F 88.7 °F 66.6 °F 51% 29.77 in 10.0 mi SSE 18.4 mph - N/A   Mostly Cloudy
4:58 PM 88.9 °F 91.4 °F 66.4 °F 47% 29.69 in 10.0 mi SE 20.7 mph 25.3 mph N/A   Partly Cloudy
5:58 PM 88.7 °F 91.5 °F 66.7 °F 48% 29.69 in 10.0 mi SE 19.6 mph - N/A   Scattered Clouds
6:58 PM 85.5 °F 88.2 °F 67.1 °F 54% 29.69 in 10.0 mi SE 18.4 mph 27.6 mph N/A   Partly Cloudy
7:58 PM 81.7 °F 84.7 °F 68.4 °F 64% 29.69 in 10.0 mi SSE 18.4 mph - N/A   Clear
8:58 PM 77.5 °F - 67.1 °F 70% 29.72 in 10.0 mi SSE 15.0 mph - N/A   Clear
9:58 PM 75.9 °F - 68.2 °F 77% 29.75 in 10.0 mi SE 13.8 mph - N/A   Clear
10:58 PM 75.2 °F - 69.1 °F 81% 29.77 in 10.0 mi SE 12.7 mph - N/A   Partly Cloudy
11:58 PM 74.8 °F - 69.4 °F 83% 29.77 in 10.0 mi ESE 11.5 mph - N/A   Mostly Cloudy